This is the latest recevied weather packets stored in our database for station/object SQ9RHX-13. If no packets are shown the sender has not sent any weather packets the latest 10 day(s).
| Time | Temp. | Humidity | Pressure | Rain* | Wind** | Luminosity | Snow |
|---|---|---|---|---|---|---|---|
| 1777431904 | 0° C | 75% | 1030.3 hPa | 0 mm | - | 0 W/m² | - |
| 1777431603 | 0° C | 76% | 1030.4 hPa | 0 mm | - | 0 W/m² | - |
| 1777431304 | 0° C | 77% | 1030.3 hPa | 0 mm | - | 0 W/m² | - |
| 1777431005 | 0° C | 77% | 1030.3 hPa | 0 mm | - | 0 W/m² | - |
| 1777430703 | 0° C | 77% | 1030.2 hPa | 0 mm | - | 0 W/m² | - |
| 1777430406 | 0° C | 75% | 1030.1 hPa | 0 mm | - | 0 W/m² | - |
| 1777430102 | 0.56° C | 75% | 1030.2 hPa | 0 mm | - | 0 W/m² | - |
| 1777429803 | 0.56° C | 73% | 1030.1 hPa | 0 mm | - | 0 W/m² | - |
| 1777429504 | 1.11° C | 71% | 1030 hPa | 0 mm | - | 0 W/m² | - |
| 1777429206 | 1.67° C | 69% | 1030.3 hPa | 0 mm | - | 0 W/m² | - |
| 1777428903 | 2.22° C | 68% | 1030.1 hPa | 0 mm | - | 0 W/m² | - |
| 1777428603 | 2.22° C | 67% | 1030.1 hPa | 0 mm | - | 0 W/m² | - |
| 1777428304 | 2.22° C | 67% | 1030 hPa | 0 mm | - | 0 W/m² | - |
| 1777428003 | 2.78° C | 66% | 1030.1 hPa | 0 mm | - | 0 W/m² | - |
| 1777427704 | 2.78° C | 66% | 1030.2 hPa | 0 mm | - | 0 W/m² | - |
| 1777427402 | 3.33° C | 64% | 1030.1 hPa | 0 mm | - | 0 W/m² | - |
| 1777427103 | 3.33° C | 63% | 1030.2 hPa | 0 mm | - | 0 W/m² | - |
| 1777426803 | 3.89° C | 62% | 1030.2 hPa | 0 mm | - | 0 W/m² | - |
| 1777426506 | 3.89° C | 62% | 1029.9 hPa | 0 mm | - | 0 W/m² | - |
| 1777426203 | 3.89° C | 62% | 1030.1 hPa | 0 mm | - | 0 W/m² | - |
| 1777425906 | 3.89° C | 62% | 1029.9 hPa | 0 mm | - | 0 W/m² | - |
| 1777425603 | 3.89° C | 62% | 1029.8 hPa | 0 mm | - | 0 W/m² | - |
| 1777425303 | 3.89° C | 62% | 1029.9 hPa | 0 mm | - | 0 W/m² | - |
| 1777425002 | 3.89° C | 62% | 1029.9 hPa | 0 mm | - | 0 W/m² | - |
| 1777424703 | 3.89° C | 62% | 1029.8 hPa | 0 mm | - | 0 W/m² | - |
* Rain latest hour (hover to see other rain measurements)
** Current wind speed in m/s (hover to see current wind gust speed)